Flag for Germany Weather past 2 weeks in Bautzen, Saxony, Germany

Now
44 °F

Fog.


Feels Like: 44 °F
Forecast: 37 / 52 °F
Wind: 2 mph from East

Location: Goerlitz

Current Time: Oct 24, 2014 at 7:05:36 PM

Latest Report: Oct 24, 2014 at 6:00 PM


Visibility: 4 mi

Pressure: 30.25 "Hg

Humidity: 93%

Dew point: 42 °F

Location of BautzenLocation

Historic Weather in Bautzen — Graph

°F

Bautzen temperature yesterday

Maximum temperature yesterday: 50 °F (at 3:00 AM)
Minimum temperature yesterday: 43 °F (at 11:00 PM)
Average temperature yesterday: 46 °F

Past Weeks' High & Low Weather Summary

 TemperatureHumidityPressure
High67 °F (Oct 13, 2:00 PM)98% (Oct 11, 3:00 AM)30.31 "Hg (Oct 11, 3:00 AM)
Low42 °F (Oct 24, 8:00 AM)64% (Oct 20, 3:00 PM)29.47 "Hg (Oct 22, 12:00 AM)
Average55 °F88%29.93 "Hg
* Reported Oct 9 6:00 PM — Oct 24 6:00 PM, Bautzen, Weather by CustomWeather, © 2014

Note: Actual official high and low records may vary slightly from our data, if they occured in-between our weather recording intervals... More about our weather records

Advertising

Bautzen weather history for previous 24 hours

 ConditionsComfort  
Time TempWeatherWind HumidityBarometerVisibility
6:00 PM
Oct 24
44 °FFog.2 mph93%30.25 "Hg4 mi
5:00 PM46 °FPartly sunny.3 mph89%30.24 "Hg8 mi
4:00 PM48 °FPartly sunny.2 mph87%30.25 "Hg8 mi
3:00 PM47 °FPartly sunny.2 mph86%30.26 "Hg8 mi
2:00 PM45 °FLow clouds.3 mph90%30.28 "Hg7 mi
1:00 PM44 °FLow clouds.3 mph92%30.30 "Hg6 mi
12:00 PM45 °FLow clouds.2 mph91%30.31 "Hg7 mi
11:00 AM44 °FLow clouds.2 mph92%30.30 "Hg7 mi
10:00 AM43 °FLow clouds.3 mph94%30.31 "Hg6 mi
9:00 AM42 °FFog.2 mph97%30.29 "Hg4 mi
8:00 AM42 °FFog.3 mph98%30.29 "Hg2 mi
7:00 AM42 °FLow clouds.2 mph98%30.28 "Hg2 mi
6:00 AM42 °FDrizzle. Low clouds.2 mph97%30.29 "Hg1 mi
5:00 AM42 °FDrizzle. Low clouds.2 mph97%30.28 "Hg2 mi
4:00 AM42 °FLow clouds.1 mph97%30.27 "Hg2 mi
3:00 AM42 °FLow clouds.1 mph97%30.28 "Hg2 mi
2:00 AM42 °FDrizzle. Low clouds.1 mph96%30.28 "Hg2 mi
1:00 AM43 °FDrizzle. Low clouds.1 mph96%30.27 "Hg2 mi
12:00 AM43 °FDrizzle. Low clouds.2 mph97%30.27 "Hg2 mi
11:00 PM
Oct 23
43 °FDrizzle. Low clouds.2 mph97%30.27 "Hg2 mi
10:00 PM44 °FDrizzle. Low clouds.2 mph97%30.27 "Hg1 mi
9:00 PM44 °FDrizzle. Low clouds.2 mph97%30.25 "Hg2 mi
8:00 PM44 °FDrizzle. Low clouds.2 mph97%30.24 "Hg2 mi
7:00 PM45 °FDrizzle. Low clouds.2 mph97%30.23 "Hg1 mi
Weather by CustomWeather, © 2014

See weather overviewHow to use our weather pages